BAW672 EGLL-LGTS

Flight info

Callsign BAW672
Flight time N/A
Altitude 39000
Route DET1J DET L6 DVR UL9 KONAN DCT KOK DCT SISGA DCT KOMOB M150 PITES DCT BABEG DCT KUMOM DCT LUMUS DCT KUSIB DCT MEDUX UM867 KOGAT DCT ERANA T389 ALIKO ALIKO1J
Aircraft A20N/M-SDGIJ1LRWXY/SB1

Departure

Time 2026-05-07 07:20
Airport London Heathrow Airport (EGLL)

Arrival

Time N/A
Airport Thessaloniki Macedonia International Airport (LGTS)
Time Latitude Longitude Altitude Speed Heading
2026-05-07 07:11 51.47133 -0.48623 77 ft 0 kts 269°
2026-05-07 07:15 51.47133 -0.48620 87 ft 3 kts 269°
2026-05-07 07:15 51.47133 -0.48585 90 ft 3 kts 269°
2026-05-07 07:15 51.47133 -0.48550 90 ft 3 kts 269°
2026-05-07 07:16 51.47135 -0.48515 90 ft 3 kts 250°
2026-05-07 07:16 51.47146 -0.48485 91 ft 3 kts 216°
2026-05-07 07:16 51.47164 -0.48471 88 ft 0 kts 188°
2026-05-07 07:17 51.47161 -0.48472 88 ft 4 kts 188°
2026-05-07 07:17 51.47094 -0.48474 86 ft 12 kts 180°
2026-05-07 07:17 51.46995 -0.48476 86 ft 16 kts 180°
2026-05-07 07:17 51.46880 -0.48472 88 ft 18 kts 179°
2026-05-07 07:18 51.46748 -0.48471 86 ft 20 kts 179°
2026-05-07 07:18 51.46606 -0.48470 87 ft 21 kts 180°
2026-05-07 07:18 51.46475 -0.48426 91 ft 14 kts 126°
2026-05-07 07:18 51.46477 -0.48333 90 ft 8 kts 78°
2026-05-07 07:19 51.46476 -0.48318 92 ft 0 kts 98°
2026-05-07 07:19 51.46476 -0.48312 92 ft 3 kts 92°
2026-05-07 07:19 51.46476 -0.48311 92 ft 0 kts 92°
2026-05-07 07:19 51.46476 -0.48310 92 ft 1 kts 92°
2026-05-07 07:20 51.46478 -0.47922 86 ft 71 kts 89°
2026-05-07 07:20 51.46473 -0.46774 92 ft 129 kts 90°
2026-05-07 07:20 51.46492 -0.45132 271 ft 153 kts 86°
2026-05-07 07:20 51.46582 -0.43454 874 ft 158 kts 87°
2026-05-07 07:21 51.46579 -0.41586 1324 ft 175 kts 100°
2026-05-07 07:21 51.46116 -0.39702 1756 ft 193 kts 120°
2026-05-07 07:21 51.45451 -0.38057 2034 ft 213 kts 125°
2026-05-07 07:21 51.44823 -0.36559 2385 ft 229 kts 118°
2026-05-07 07:22 51.44184 -0.34102 2922 ft 250 kts 111°
2026-05-07 07:22 51.43589 -0.31393 3825 ft 258 kts 109°
2026-05-07 07:22 51.43207 -0.29552 4498 ft 262 kts 109°
2026-05-07 07:22 51.42730 -0.26724 5383 ft 268 kts 103°
2026-05-07 07:23 51.42339 -0.23792 5796 ft 270 kts 103°
2026-05-07 07:23 51.41947 -0.20856 5961 ft 271 kts 103°
2026-05-07 07:23 51.41540 -0.17851 6064 ft 283 kts 103°
2026-05-07 07:23 51.41120 -0.14777 6057 ft 275 kts 103°
2026-05-07 07:24 51.40717 -0.11874 6047 ft 267 kts 104°
2026-05-07 07:24 51.40305 -0.08956 6059 ft 271 kts 104°
2026-05-07 07:24 51.39889 -0.06019 6052 ft 269 kts 104°
2026-05-07 07:24 51.39475 -0.03095 6055 ft 269 kts 104°
2026-05-07 07:25 51.38677 0.02532 6430 ft 273 kts 104°
2026-05-07 07:25 51.38255 0.05498 7341 ft 274 kts 104°
2026-05-07 07:25 51.37924 0.07818 8098 ft 277 kts 103°
2026-05-07 07:26 51.37578 0.10229 8804 ft 282 kts 103°
2026-05-07 07:26 51.37139 0.13260 9705 ft 287 kts 103°
2026-05-07 07:26 51.36683 0.16389 10478 ft 297 kts 103°
2026-05-07 07:26 51.36196 0.19747 10836 ft 321 kts 103°
2026-05-07 07:27 51.35676 0.23361 11219 ft 340 kts 103°
2026-05-07 07:27 51.35146 0.27059 11977 ft 346 kts 103°
2026-05-07 07:27 51.34604 0.30832 12812 ft 350 kts 103°
2026-05-07 07:27 51.34049 0.34675 13517 ft 354 kts 103°
2026-05-07 07:28 51.33493 0.38517 14264 ft 358 kts 103°
2026-05-07 07:28 51.32924 0.42438 14997 ft 362 kts 103°
2026-05-07 07:28 51.32366 0.46272 15697 ft 366 kts 103°
2026-05-07 07:28 51.31778 0.50303 16422 ft 370 kts 103°
2026-05-07 07:29 51.31185 0.54356 17129 ft 374 kts 103°
2026-05-07 07:29 51.30593 0.58397 17849 ft 378 kts 103°
2026-05-07 07:29 51.29908 0.62449 18493 ft 382 kts 107°
2026-05-07 07:29 51.29152 0.66569 19109 ft 385 kts 107°
2026-05-07 07:30 51.28396 0.70702 19724 ft 389 kts 107°
2026-05-07 07:30 51.27631 0.74877 20336 ft 392 kts 107°
2026-05-07 07:30 51.26864 0.79062 20940 ft 396 kts 107°
2026-05-07 07:30 51.26090 0.83274 21536 ft 399 kts 107°
2026-05-07 07:31 51.25307 0.87523 22136 ft 403 kts 107°
2026-05-07 07:31 51.24506 0.91858 22735 ft 407 kts 107°
2026-05-07 07:31 51.23706 0.96180 23302 ft 410 kts 107°
2026-05-07 07:31 51.22890 1.00577 23831 ft 414 kts 107°
2026-05-07 07:32 51.22072 1.04976 24308 ft 416 kts 107°
2026-05-07 07:32 51.21235 1.09460 24783 ft 419 kts 107°
2026-05-07 07:32 51.20405 1.13904 25248 ft 422 kts 107°
2026-05-07 07:32 51.19556 1.18430 25701 ft 425 kts 107°
2026-05-07 07:33 51.18718 1.22893 26133 ft 428 kts 107°
2026-05-07 07:33 51.17850 1.27503 26554 ft 431 kts 107°
2026-05-07 07:33 51.16983 1.32099 26977 ft 434 kts 107°
2026-05-07 07:33 51.16295 1.36780 27371 ft 437 kts 99°
2026-05-07 07:34 51.15975 1.41585 27770 ft 440 kts 94°
2026-05-07 07:34 51.15758 1.46452 28154 ft 443 kts 94°
2026-05-07 07:34 51.15530 1.51340 28512 ft 445 kts 94°
2026-05-07 07:34 51.15292 1.56285 28886 ft 448 kts 94°
2026-05-07 07:35 51.15052 1.61203 29224 ft 451 kts 95°
2026-05-07 07:35 51.14805 1.66210 29569 ft 453 kts 95°
2026-05-07 07:35 51.14554 1.71239 29914 ft 456 kts 95°
2026-05-07 07:35 51.14302 1.76248 30227 ft 458 kts 95°
2026-05-07 07:36 51.14046 1.81302 30530 ft 460 kts 95°
2026-05-07 07:36 51.13786 1.86391 30838 ft 462 kts 95°
2026-05-07 07:36 51.13522 1.91529 31145 ft 464 kts 95°
2026-05-07 07:36 51.13257 1.96622 31519 ft 464 kts 95°
2026-05-07 07:37 51.12988 2.01756 31922 ft 463 kts 95°
2026-05-07 07:37 51.12718 2.06871 32330 ft 462 kts 95°
2026-05-07 07:37 51.12447 2.11942 32716 ft 461 kts 95°
2026-05-07 07:37 51.12178 2.16952 33109 ft 460 kts 95°
2026-05-07 07:38 51.11901 2.22055 33498 ft 459 kts 95°
2026-05-07 07:38 51.11625 2.27099 33872 ft 458 kts 95°
2026-05-07 07:38 51.11350 2.32099 34201 ft 457 kts 95°
2026-05-07 07:38 51.11068 2.37168 34473 ft 457 kts 95°
2026-05-07 07:39 51.10788 2.42169 34716 ft 457 kts 95°
2026-05-07 07:39 51.10502 2.47244 34965 ft 457 kts 95°
2026-05-07 07:39 51.10218 2.52234 35209 ft 457 kts 95°
2026-05-07 07:39 51.09929 2.57276 35444 ft 457 kts 96°
2026-05-07 07:40 51.09438 2.62251 35660 ft 457 kts 103°
2026-05-07 07:40 51.08559 2.67093 35870 ft 457 kts 111°
2026-05-07 07:40 51.07313 2.71714 36081 ft 456 kts 118°
2026-05-07 07:40 51.05805 2.76229 36290 ft 456 kts 118°
2026-05-07 07:41 51.04322 2.80686 36489 ft 457 kts 118°
2026-05-07 07:41 51.02854 2.85113 36702 ft 457 kts 118°
2026-05-07 07:41 51.01361 2.89608 36904 ft 457 kts 118°
2026-05-07 07:41 50.99890 2.94026 37085 ft 457 kts 118°
2026-05-07 07:42 50.98394 2.98508 37259 ft 458 kts 118°
2026-05-07 07:42 50.96912 3.02938 37466 ft 458 kts 118°
2026-05-07 07:42 50.95410 3.07421 37627 ft 458 kts 118°
2026-05-07 07:42 50.93916 3.11869 37802 ft 458 kts 119°
2026-05-07 07:43 50.92409 3.16349 37958 ft 459 kts 119°
2026-05-07 07:43 50.90903 3.20816 38131 ft 459 kts 119°
2026-05-07 07:43 50.89410 3.25238 38286 ft 459 kts 119°
2026-05-07 07:43 50.87899 3.29707 38435 ft 459 kts 119°
2026-05-07 07:44 50.86380 3.34190 38588 ft 459 kts 119°
2026-05-07 07:44 50.84877 3.38616 38711 ft 460 kts 119°
2026-05-07 07:44 50.83370 3.43050 38830 ft 460 kts 119°
2026-05-07 07:44 50.81841 3.47537 38964 ft 459 kts 119°
2026-05-07 07:45 50.80325 3.51980 39025 ft 459 kts 119°
2026-05-07 07:45 50.77290 3.60851 39041 ft 459 kts 119°
2026-05-07 07:46 50.74261 3.69673 39048 ft 459 kts 119°
2026-05-07 07:46 50.71204 3.78545 39046 ft 459 kts 119°
2026-05-07 07:47 50.68159 3.87352 39044 ft 459 kts 119°
2026-05-07 07:47 50.65090 3.96198 39047 ft 458 kts 120°
2026-05-07 07:48 50.62025 4.05006 39046 ft 459 kts 120°
2026-05-07 07:48 50.58949 4.13777 39046 ft 458 kts 120°
2026-05-07 07:49 50.55857 4.22535 39050 ft 458 kts 120°
2026-05-07 07:49 50.52773 4.31253 39048 ft 458 kts 120°
2026-05-07 07:50 50.49661 4.40020 39048 ft 458 kts 120°
2026-05-07 07:50 50.46543 4.48775 39050 ft 458 kts 120°
2026-05-07 07:51 50.43421 4.57510 39046 ft 458 kts 120°
2026-05-07 07:51 50.40305 4.66202 39049 ft 458 kts 120°
2026-05-07 07:52 50.37186 4.74870 39045 ft 458 kts 120°
2026-05-07 07:52 50.34043 4.83576 39041 ft 458 kts 120°
2026-05-07 07:53 50.30896 4.92262 39037 ft 459 kts 121°
2026-05-07 07:53 50.27744 5.00937 39032 ft 458 kts 121°
2026-05-07 07:54 50.24600 5.09558 39030 ft 458 kts 121°
2026-05-07 07:54 50.21437 5.18200 39031 ft 458 kts 121°
2026-05-07 07:55 50.18277 5.26807 39026 ft 458 kts 121°
2026-05-07 07:55 50.15091 5.35458 39030 ft 458 kts 121°
2026-05-07 07:56 50.11911 5.44073 39025 ft 458 kts 121°
2026-05-07 07:56 50.08736 5.52661 39022 ft 458 kts 121°
2026-05-07 07:57 50.05560 5.61220 39019 ft 458 kts 121°
2026-05-07 07:57 50.02370 5.69787 39018 ft 458 kts 121°
2026-05-07 07:58 49.99158 5.78387 39012 ft 458 kts 121°
2026-05-07 07:58 49.95967 5.86899 39013 ft 458 kts 121°
2026-05-07 07:59 49.92754 5.95445 39011 ft 458 kts 121°
2026-05-07 07:59 49.89549 6.03941 39007 ft 458 kts 122°
2026-05-07 08:00 49.86315 6.12484 39007 ft 458 kts 122°
2026-05-07 08:00 49.83280 6.21107 39009 ft 458 kts 118°
2026-05-07 08:01 49.80366 6.29896 39008 ft 459 kts 118°
2026-05-07 08:01 49.77418 6.38622 39007 ft 459 kts 119°
2026-05-07 08:02 49.74424 6.47387 39005 ft 459 kts 119°
2026-05-07 08:02 49.71461 6.56146 39008 ft 459 kts 117°
2026-05-07 08:03 49.68686 6.65002 38985 ft 459 kts 117°
2026-05-07 08:03 49.65911 6.73853 38985 ft 459 kts 117°
2026-05-07 08:04 49.63093 6.82725 38978 ft 459 kts 117°
2026-05-07 08:04 49.60272 6.91544 38980 ft 459 kts 117°
2026-05-07 08:05 49.57437 7.00375 38983 ft 459 kts 117°
2026-05-07 08:05 49.54618 7.09126 38988 ft 459 kts 118°
2026-05-07 08:06 49.51776 7.17917 38985 ft 459 kts 118°
2026-05-07 08:06 49.48920 7.26720 38989 ft 459 kts 118°
2026-05-07 08:07 49.46053 7.35529 38997 ft 459 kts 118°
2026-05-07 08:07 49.43188 7.44297 38999 ft 460 kts 118°
2026-05-07 08:08 49.40331 7.53014 39004 ft 459 kts 118°
2026-05-07 08:08 49.37450 7.61773 38998 ft 459 kts 118°
2026-05-07 08:09 49.34568 7.70504 38998 ft 459 kts 118°
2026-05-07 08:09 49.31677 7.79230 38993 ft 459 kts 118°
2026-05-07 08:10 49.28777 7.87956 38993 ft 459 kts 118°
2026-05-07 08:10 49.25861 7.96699 38990 ft 459 kts 118°
2026-05-07 08:11 49.22960 8.05369 38985 ft 459 kts 118°
2026-05-07 08:11 49.20042 8.14057 38984 ft 459 kts 119°
2026-05-07 08:12 49.17117 8.22738 38984 ft 459 kts 119°
2026-05-07 08:12 49.14191 8.31393 38985 ft 459 kts 119°
2026-05-07 08:13 49.11254 8.40049 38985 ft 460 kts 119°
2026-05-07 08:13 49.08797 8.47271 38985 ft 460 kts 119°
2026-05-07 08:14 49.05850 8.55902 38981 ft 460 kts 119°
2026-05-07 08:14 49.02896 8.64529 38983 ft 460 kts 119°
2026-05-07 08:15 48.99441 8.74580 38983 ft 460 kts 120°
2026-05-07 08:15 48.96958 8.81777 38982 ft 460 kts 120°
2026-05-07 08:16 48.93971 8.90409 38985 ft 460 kts 120°
2026-05-07 08:16 48.91003 8.98959 38986 ft 460 kts 120°
2026-05-07 08:17 48.88009 9.07557 38986 ft 460 kts 120°
2026-05-07 08:17 48.85024 9.16100 38987 ft 460 kts 120°
2026-05-07 08:18 48.82017 9.24675 38987 ft 459 kts 120°
2026-05-07 08:18 48.79001 9.33248 38995 ft 460 kts 120°
2026-05-07 08:19 48.75978 9.41814 38988 ft 460 kts 120°
2026-05-07 08:19 48.72955 9.50350 38986 ft 460 kts 121°
2026-05-07 08:20 48.69930 9.58869 38990 ft 460 kts 121°
2026-05-07 08:20 48.66882 9.67332 38984 ft 459 kts 123°
2026-05-07 08:21 48.63604 9.75597 38992 ft 459 kts 123°
2026-05-07 08:21 48.60361 9.83910 38985 ft 459 kts 123°
2026-05-07 08:22 48.57114 9.92176 38995 ft 459 kts 123°
2026-05-07 08:22 48.53834 10.00469 38997 ft 458 kts 123°
2026-05-07 08:23 48.50564 10.08707 38997 ft 459 kts 123°
2026-05-07 08:23 48.47292 10.16926 39004 ft 458 kts 124°
2026-05-07 08:24 48.43993 10.25186 39006 ft 459 kts 124°
2026-05-07 08:24 48.40700 10.33409 39006 ft 459 kts 124°
2026-05-07 08:25 48.37405 10.41607 39001 ft 459 kts 124°
2026-05-07 08:25 48.34114 10.49773 39001 ft 459 kts 124°
2026-05-07 08:26 48.29143 10.62061 38997 ft 458 kts 124°
2026-05-07 08:26 48.25825 10.70230 38995 ft 458 kts 124°
2026-05-07 08:27 48.22509 10.78370 38992 ft 458 kts 124°
2026-05-07 08:27 48.19177 10.86525 38993 ft 458 kts 124°
2026-05-07 08:28 48.15856 10.94627 38991 ft 458 kts 125°
2026-05-07 08:28 48.12517 11.02751 39015 ft 458 kts 125°
2026-05-07 08:29 48.09167 11.10876 38992 ft 458 kts 125°
2026-05-07 08:29 48.05815 11.18982 38990 ft 458 kts 125°
2026-05-07 08:30 48.02473 11.27039 38992 ft 457 kts 125°
2026-05-07 08:30 47.99127 11.35083 38992 ft 457 kts 125°
2026-05-07 08:31 47.95766 11.43138 38988 ft 457 kts 126°
2026-05-07 08:31 47.92403 11.51172 38985 ft 457 kts 126°
2026-05-07 08:32 47.89035 11.59195 38988 ft 457 kts 126°
2026-05-07 08:32 47.85652 11.67231 38983 ft 456 kts 126°
2026-05-07 08:33 47.82273 11.75235 38987 ft 456 kts 126°
2026-05-07 08:33 47.78913 11.83167 38993 ft 456 kts 126°
2026-05-07 08:34 47.75511 11.91177 38998 ft 457 kts 126°
2026-05-07 08:34 47.72103 11.99178 39002 ft 457 kts 126°
2026-05-07 08:35 47.68695 12.07155 39001 ft 457 kts 126°
2026-05-07 08:35 47.65307 12.15061 39004 ft 457 kts 126°
2026-05-07 08:36 47.61884 12.23026 39009 ft 457 kts 127°
2026-05-07 08:36 47.58467 12.30957 39013 ft 457 kts 127°
2026-05-07 08:37 47.54943 12.38785 39008 ft 454 kts 132°
2026-05-07 08:37 47.51074 12.46087 39002 ft 454 kts 132°
2026-05-07 08:38 47.47192 12.53472 39006 ft 453 kts 132°
2026-05-07 08:38 47.43315 12.60820 39002 ft 453 kts 132°
2026-05-07 08:39 47.39455 12.68103 39003 ft 454 kts 132°
2026-05-07 08:39 47.35542 12.75463 38998 ft 454 kts 132°
2026-05-07 08:40 47.31660 12.82750 38997 ft 454 kts 133°
2026-05-07 08:40 47.27744 12.90078 38991 ft 454 kts 133°
2026-05-07 08:41 47.23844 12.97360 38995 ft 453 kts 133°
2026-05-07 08:41 47.19941 13.04626 38992 ft 454 kts 133°
2026-05-07 08:42 47.16033 13.11881 38979 ft 454 kts 133°
2026-05-07 08:42 47.12087 13.19186 38978 ft 455 kts 133°
2026-05-07 08:43 47.08165 13.26429 38974 ft 456 kts 133°
2026-05-07 08:43 47.04228 13.33682 38973 ft 455 kts 133°
2026-05-07 08:44 47.00271 13.40951 38970 ft 454 kts 133°
2026-05-07 08:44 46.96327 13.48178 38972 ft 455 kts 133°
2026-05-07 08:45 46.92374 13.55399 38973 ft 455 kts 133°
2026-05-07 08:45 46.88433 13.62583 38970 ft 455 kts 134°
2026-05-07 08:46 46.84457 13.69812 38971 ft 454 kts 134°
2026-05-07 08:46 46.80498 13.76991 38970 ft 455 kts 134°
2026-05-07 08:47 46.76518 13.84187 38971 ft 456 kts 134°
2026-05-07 08:47 46.72531 13.91379 38977 ft 455 kts 134°
2026-05-07 08:48 46.68551 13.98540 38986 ft 455 kts 134°
2026-05-07 08:48 46.64573 14.05678 38990 ft 455 kts 134°
2026-05-07 08:49 46.60586 14.12816 38993 ft 455 kts 134°
2026-05-07 08:49 46.56499 14.19785 38991 ft 453 kts 136°
2026-05-07 08:50 46.52363 14.26709 38986 ft 453 kts 136°
2026-05-07 08:50 46.48248 14.33594 38989 ft 452 kts 136°
2026-05-07 08:51 46.44094 14.40505 38988 ft 453 kts 136°
2026-05-07 08:51 46.39973 14.47340 38992 ft 451 kts 136°
2026-05-07 08:52 46.35847 14.54161 38988 ft 451 kts 136°
2026-05-07 08:52 46.31711 14.60983 38990 ft 450 kts 136°
2026-05-07 08:53 46.27588 14.67771 38988 ft 449 kts 137°
2026-05-07 08:53 46.23436 14.74588 38994 ft 449 kts 137°
2026-05-07 08:54 46.19332 14.81308 38992 ft 449 kts 137°
2026-05-07 08:54 46.15183 14.88084 38991 ft 450 kts 137°
2026-05-07 08:55 46.11024 14.94862 38992 ft 450 kts 137°
2026-05-07 08:55 46.06880 15.01599 38992 ft 450 kts 137°
2026-05-07 08:56 46.02701 15.08376 38999 ft 451 kts 137°
2026-05-07 08:56 45.98549 15.15092 39001 ft 451 kts 137°
2026-05-07 08:57 45.94371 15.21832 39009 ft 452 kts 137°
2026-05-07 08:57 45.90182 15.28575 39013 ft 452 kts 137°
2026-05-07 08:58 45.85990 15.35306 39016 ft 452 kts 137°
2026-05-07 08:58 45.81800 15.42017 39015 ft 452 kts 137°
2026-05-07 08:59 45.77597 15.48732 39018 ft 452 kts 137°
2026-05-07 08:59 45.73398 15.55426 39012 ft 452 kts 137°
2026-05-07 09:00 45.69190 15.62117 39015 ft 452 kts 137°
2026-05-07 09:00 45.64973 15.68806 39014 ft 452 kts 137°
2026-05-07 09:01 45.60755 15.75480 39018 ft 453 kts 137°
2026-05-07 09:01 45.56541 15.82132 39013 ft 453 kts 138°
2026-05-07 09:02 45.52320 15.88779 39023 ft 451 kts 137°
2026-05-07 09:02 45.48112 15.95387 39023 ft 452 kts 137°
2026-05-07 09:03 45.43892 16.02002 39029 ft 451 kts 137°
2026-05-07 09:03 45.39662 16.08616 39023 ft 451 kts 137°
2026-05-07 09:04 45.35461 16.15168 39040 ft 450 kts 137°
2026-05-07 09:04 45.33458 16.18285 39031 ft 450 kts 138°
2026-05-07 09:05 45.29234 16.24850 39036 ft 449 kts 137°
2026-05-07 09:05 45.25717 16.30304 39033 ft 449 kts 137°
2026-05-07 09:06 45.21517 16.36802 39036 ft 448 kts 137°
2026-05-07 09:06 45.17288 16.43334 39029 ft 447 kts 137°
2026-05-07 09:07 45.13102 16.49805 39027 ft 447 kts 137°
2026-05-07 09:07 45.08915 16.56391 39030 ft 447 kts 137°
2026-05-07 09:08 45.04784 16.62900 39029 ft 446 kts 137°
2026-05-07 09:08 45.00628 16.69425 39028 ft 445 kts 137°
2026-05-07 09:09 44.96467 16.75933 39025 ft 445 kts 137°
2026-05-07 09:09 44.92336 16.82374 39026 ft 445 kts 137°
2026-05-07 09:10 44.88164 16.88864 39026 ft 445 kts 137°
2026-05-07 09:10 44.83999 16.95329 39034 ft 445 kts 137°
2026-05-07 09:11 44.79824 17.01794 39037 ft 445 kts 137°
2026-05-07 09:11 44.75928 17.07813 39043 ft 446 kts 137°
2026-05-07 09:12 44.71638 17.14426 39042 ft 446 kts 137°
2026-05-07 09:12 44.67439 17.20885 39034 ft 446 kts 137°
2026-05-07 09:13 44.63253 17.27308 39036 ft 448 kts 137°
2026-05-07 09:13 44.59040 17.33756 39037 ft 448 kts 137°
2026-05-07 09:14 44.54989 17.39943 39037 ft 448 kts 137°
2026-05-07 09:14 44.50781 17.46355 39041 ft 449 kts 137°
2026-05-07 09:15 44.46557 17.52779 39042 ft 449 kts 137°
2026-05-07 09:15 44.42334 17.59185 39048 ft 449 kts 137°
2026-05-07 09:16 44.38074 17.65631 39049 ft 449 kts 137°
2026-05-07 09:16 44.33837 17.72031 39052 ft 448 kts 137°
2026-05-07 09:17 44.29617 17.78387 39053 ft 449 kts 137°
2026-05-07 09:17 44.25353 17.84797 39055 ft 449 kts 137°
2026-05-07 09:18 44.21100 17.91175 39058 ft 449 kts 137°
2026-05-07 09:18 44.16862 17.97515 39062 ft 449 kts 137°
2026-05-07 09:19 44.12604 18.03872 39059 ft 449 kts 137°
2026-05-07 09:19 44.08359 18.10195 39068 ft 449 kts 137°
2026-05-07 09:20 44.04098 18.16528 39069 ft 449 kts 137°
2026-05-07 09:20 43.99822 18.22868 39073 ft 450 kts 137°
2026-05-07 09:21 43.95610 18.29099 39073 ft 450 kts 137°
2026-05-07 09:21 43.91323 18.35429 39073 ft 450 kts 137°
2026-05-07 09:22 43.87265 18.41405 39073 ft 450 kts 137°
2026-05-07 09:22 43.83145 18.47461 39072 ft 450 kts 137°
2026-05-07 09:23 43.78846 18.53765 39073 ft 452 kts 137°
2026-05-07 09:23 43.74574 18.60016 39072 ft 450 kts 137°
2026-05-07 09:24 43.70241 18.66342 39069 ft 451 kts 137°
2026-05-07 09:24 43.65917 18.72642 39072 ft 451 kts 137°
2026-05-07 09:25 43.61633 18.78870 39071 ft 451 kts 137°
2026-05-07 09:25 43.57287 18.85171 39077 ft 451 kts 138°
2026-05-07 09:26 43.52967 18.91423 39086 ft 451 kts 138°
2026-05-07 09:26 43.48645 18.97665 39079 ft 450 kts 138°
2026-05-07 09:27 43.44484 19.03659 39084 ft 450 kts 138°
2026-05-07 09:28 43.37972 19.13015 39083 ft 450 kts 138°
2026-05-07 09:28 43.34188 19.18438 39098 ft 450 kts 138°
2026-05-07 09:29 43.29855 19.24634 39100 ft 449 kts 138°
2026-05-07 09:29 43.25518 19.30821 39101 ft 449 kts 138°
2026-05-07 09:30 43.21180 19.36999 39098 ft 449 kts 138°
2026-05-07 09:30 43.16864 19.43130 39100 ft 449 kts 138°
2026-05-07 09:31 43.12497 19.49322 39102 ft 449 kts 138°
2026-05-07 09:31 43.08154 19.55464 39106 ft 449 kts 139°
2026-05-07 09:32 43.03832 19.61563 39110 ft 449 kts 139°
2026-05-07 09:32 42.99471 19.67704 39113 ft 449 kts 139°
2026-05-07 09:33 42.95111 19.73832 39109 ft 449 kts 139°
2026-05-07 09:33 42.90781 19.79907 39112 ft 449 kts 139°
2026-05-07 09:34 42.86395 19.86043 39114 ft 449 kts 139°
2026-05-07 09:34 42.82050 19.92110 39119 ft 450 kts 139°
2026-05-07 09:35 42.77669 19.98222 39121 ft 449 kts 139°
2026-05-07 09:35 42.73337 20.04338 39124 ft 451 kts 135°
2026-05-07 09:36 42.69369 20.10965 39126 ft 452 kts 133°
2026-05-07 09:36 42.65466 20.17579 39131 ft 451 kts 133°
2026-05-07 09:37 42.61474 20.24184 39127 ft 450 kts 134°
2026-05-07 09:37 42.57477 20.30740 39132 ft 450 kts 134°
2026-05-07 09:38 42.53491 20.37264 39133 ft 451 kts 134°
2026-05-07 09:38 42.49484 20.43809 39137 ft 451 kts 134°
2026-05-07 09:39 42.45479 20.50336 39139 ft 452 kts 134°
2026-05-07 09:39 42.41456 20.56881 39138 ft 452 kts 134°
2026-05-07 09:40 42.37412 20.63442 39142 ft 453 kts 134°
2026-05-07 09:40 42.33404 20.69933 39144 ft 453 kts 134°
2026-05-07 09:41 42.29357 20.76471 39143 ft 454 kts 134°
2026-05-07 09:41 42.25291 20.83025 39145 ft 455 kts 134°
2026-05-07 09:42 42.21252 20.89524 39143 ft 455 kts 134°
2026-05-07 09:42 42.17152 20.96103 39138 ft 456 kts 134°
2026-05-07 09:43 42.13090 21.02608 39134 ft 456 kts 134°
2026-05-07 09:43 42.08734 21.08760 39144 ft 453 kts 141°
2026-05-07 09:44 42.04131 21.14593 39145 ft 454 kts 141°
2026-05-07 09:44 41.99544 21.20421 39146 ft 454 kts 141°
2026-05-07 09:45 41.94960 21.26226 39153 ft 455 kts 141°
2026-05-07 09:45 41.90357 21.32043 39150 ft 455 kts 141°
2026-05-07 09:46 41.85740 21.37863 39150 ft 456 kts 141°
2026-05-07 09:46 41.81122 21.43673 39150 ft 456 kts 141°
2026-05-07 09:47 41.76496 21.49479 39155 ft 457 kts 141°
2026-05-07 09:47 41.71839 21.55316 39152 ft 457 kts 141°
2026-05-07 09:48 41.67189 21.61131 39153 ft 458 kts 141°
2026-05-07 09:48 41.62529 21.66943 39151 ft 459 kts 141°
2026-05-07 09:49 41.57853 21.72766 39152 ft 460 kts 141°
2026-05-07 09:49 41.53172 21.78583 39153 ft 461 kts 142°
2026-05-07 09:50 41.48473 21.84411 39152 ft 460 kts 142°
2026-05-07 09:50 41.43793 21.90199 39154 ft 462 kts 142°
2026-05-07 09:51 41.39076 21.96024 39152 ft 461 kts 142°
2026-05-07 09:51 41.34358 22.01839 39159 ft 461 kts 142°
2026-05-07 09:52 41.29658 22.07619 39158 ft 461 kts 142°
2026-05-07 09:52 41.24960 22.13384 39159 ft 462 kts 142°
2026-05-07 09:53 41.20252 22.19149 39154 ft 461 kts 142°
2026-05-07 09:53 41.15149 22.24188 39158 ft 452 kts 155°
2026-05-07 09:54 41.09515 22.27638 39154 ft 446 kts 164°
2026-05-07 09:54 41.03787 22.30698 39150 ft 446 kts 163°
2026-05-07 09:55 40.97976 22.33302 39151 ft 438 kts 175°
2026-05-07 09:55 40.91979 22.34505 39150 ft 436 kts 178°
2026-05-07 09:56 40.85965 22.35729 38815 ft 441 kts 170°
2026-05-07 09:56 40.83059 22.37194 38159 ft 450 kts 157°
2026-05-07 09:56 40.80444 22.39428 37195 ft 456 kts 145°
2026-05-07 09:56 40.78178 22.42390 36005 ft 465 kts 133°
2026-05-07 09:57 40.76229 22.45782 34772 ft 471 kts 131°
2026-05-07 09:57 40.74057 22.49044 33472 ft 468 kts 141°
2026-05-07 09:57 40.71553 22.51683 32170 ft 463 kts 151°
2026-05-07 09:57 40.68713 22.53706 30910 ft 459 kts 160°
2026-05-07 09:58 40.65797 22.55334 29747 ft 457 kts 159°
2026-05-07 09:58 40.63853 22.56382 29072 ft 449 kts 165°
2026-05-07 09:58 40.59880 22.57311 28173 ft 424 kts 183°
2026-05-07 09:58 40.57949 22.57141 27900 ft 408 kts 192°
2026-05-07 09:59 40.55339 22.56100 27687 ft 381 kts 208°
2026-05-07 09:59 40.53324 22.54311 27610 ft 354 kts 224°
2026-05-07 09:59 40.51602 22.52102 27512 ft 332 kts 232°
2026-05-07 09:59 40.50531 22.49527 27349 ft 312 kts 254°
2026-05-07 10:00 40.50324 22.46756 26877 ft 312 kts 276°
2026-05-07 10:00 40.50987 22.43999 26120 ft 322 kts 297°
2026-05-07 10:00 40.52409 22.41674 25189 ft 335 kts 311°
2026-05-07 10:00 40.54106 22.39468 24250 ft 345 kts 315°
2026-05-07 10:01 40.56152 22.37793 23414 ft 354 kts 338°
2026-05-07 10:01 40.58525 22.36993 22617 ft 357 kts 350°
2026-05-07 10:01 40.61019 22.37055 21847 ft 360 kts
2026-05-07 10:01 40.63437 22.38014 21079 ft 353 kts 20°
2026-05-07 10:02 40.65622 22.39206 20347 ft 334 kts 20°
2026-05-07 10:02 40.67704 22.40360 19629 ft 319 kts 20°
2026-05-07 10:02 40.69712 22.41486 18920 ft 305 kts 20°
2026-05-07 10:02 40.71620 22.42567 18150 ft 296 kts 20°
2026-05-07 10:03 40.72019 22.42794 17950 ft 295 kts 20°